ORBCOMM FM37 [-] (33064 NORAD) Tracking and Keplerian Element Data

This shows tracking and keplerian element data for the satellite.

Feedback or suggestion? Click here.




ElementValue
Catalog33064
NameORBCOMM FM37 [-]
Epoch Orbit81668
Epoch Day238.43258883
Epoch Year2023
RAAN232.1016
Inclination48.4405
Eccentricity0.000558
Argument of Perigee64.5444
Mean Anonmoly56.7582
Mean Motion14.7496076
Decay Rate1.558E-05
L11 33064U 08031E 23238.43258883 .00001558 00000+0 25940-3 0 9998
L22 33064 48.4405 232.1016 0005580 64.5444 56.7582 14.74960760816689



Live tracking and technical data element details for ORBCOMM FM37 [-] (NORAD 33064). ORBCOMM FM37 [-] can be tracked NOW for your location showing map with azimuth and elevation plus other details from your city location.







IsCatalogInMostPopularTable: catalog: 33064, numindb: 282
Update: records affected: 1



GetName: 33064 ORBCOMM FM37 [-]

Hit Count: updated at: Sat, 24 May 2025 16:49:48 GMT